Altoona, PA

1:00 AM EDT on July 21, 2017 (GMT -0400)
Altoona-Blair County

Weather History for KAOO - September, 2013

Change the Weather History Date:

Monday, September 23, 2013

  Actual Average Record
Temperature  
Mean Temperature 52 °F 59 °F  
Max Temperature 61 °F 69 °F 90 °F (1970)
Min Temperature 43 °F 48 °F 31 °F (1974)
Degree Days  
Heating Degree Days 13 7  
Month to date heating degree days 96 89  
Since 1 July heating degree days 117 113  
Cooling Degree Days 0 1  
Month to date cooling degree days 55 42  
Year to date cooling degree days 663 515  
Growing Degree Days 3 (Base 50)    
Moisture  
Dew Point 41 °F    
Average Humidity 72    
Maximum Humidity 92    
Minimum Humidity 51    
Precipitation  
Precipitation 0.00 in 0.11 in 0.67 in (1955)
Month to date precipitation 2.04 2.70  
Year to date precipitation 21.05 23.62  
Sea Level Pressure  
Sea Level Pressure 30.10 in    
Wind  
Wind Speed 6 mph (North)    
Max Wind Speed 13 mph    
Max Gust Speed 18 mph    
Visibility 10 miles    
Events      
T = Trace of Precipitation, MM = Missing Value Source: NWS Daily Summary

Daily Weather History Graph

Daily Weather History Graph

Search for Another Location

Airport or City:

Trip Planner

Search our weather history database for the weather conditions in past years. The results will help you decide how hot, cold, wet, or windy it might be!

Date:

Astronomy

Sep. 23, 2013 Rise Set
Actual Time 7:02 AM EDT 7:08 PM EDT
Civil Twilight 6:34 AM EDT 7:35 PM EDT
Nautical Twilight 6:03 AM EDT 8:07 PM EDT
Astronomical Twilight 5:30 AM EDT 8:39 PM EDT
Moon 9:38 PM EDT (9/23) 11:19 AM EDT (9/23)
Length of Visible Light 13h 00m
Length of Day
12h 06m
Waning Gibbous, 81% of the Moon is Illuminated
Sep 23
Waning Gibbous
Sep 26
Last Quarter
Oct 4
New
Oct 11
First Quarter
Oct 18
Full

Hourly Weather History & Observations

Time (EDT) Temp. Dew Point Humidity Pressure Visibility Wind Dir Wind Speed Gust Speed Precip Events Conditions
12:53 AM 53.1 °F 39.9 °F 61% 30.01 in 10.0 mi North 5.8 mph 19.6 mph N/A   Overcast
1:53 AM 52.0 °F 41.0 °F 66% 30.01 in 10.0 mi North 11.5 mph - N/A   Overcast
2:53 AM 52.0 °F 41.0 °F 66% 30.01 in 10.0 mi North 6.9 mph - N/A   Overcast
3:53 AM 51.1 °F 39.9 °F 66% 30.03 in 10.0 mi NNW 8.1 mph - N/A   Overcast
4:53 AM 51.1 °F 41.0 °F 68% 30.04 in 10.0 mi NNW 4.6 mph - N/A   Overcast
5:53 AM 50.0 °F 42.1 °F 74% 30.06 in 10.0 mi North 4.6 mph - N/A   Overcast
6:53 AM 50.0 °F 42.1 °F 74% 30.07 in 10.0 mi North 4.6 mph - N/A   Overcast
7:53 AM 48.9 °F 42.1 °F 77% 30.10 in 10.0 mi NNE 8.1 mph - N/A   Overcast
8:53 AM 48.9 °F 39.0 °F 69% 30.13 in 10.0 mi NNE 10.4 mph - N/A   Overcast
9:12 AM 48.2 °F 39.2 °F 71% 30.12 in 10.0 mi NE 5.8 mph - N/A   Overcast
9:53 AM 48.9 °F 39.0 °F 69% 30.13 in 10.0 mi NNE 6.9 mph - N/A   Overcast
10:53 AM 50.0 °F 39.9 °F 68% 30.14 in 10.0 mi North 6.9 mph - N/A   Overcast
11:53 AM 52.0 °F 39.9 °F 63% 30.14 in 10.0 mi NE 3.5 mph - N/A   Overcast
12:46 PM 53.6 °F 41.0 °F 62% 30.14 in 10.0 mi NW 8.1 mph - N/A   Overcast
12:53 PM 54.0 °F 41.0 °F 62% 30.14 in 10.0 mi NW 9.2 mph - N/A   Overcast
1:53 PM 57.0 °F 41.0 °F 55% 30.12 in 10.0 mi Variable 3.5 mph - N/A   Partly Cloudy
2:53 PM 60.1 °F 43.0 °F 53% 30.10 in 10.0 mi NNW 8.1 mph - N/A   Clear
3:53 PM 60.1 °F 43.0 °F 53% 30.09 in 10.0 mi NW 9.2 mph 17.3 mph N/A   Clear
4:53 PM 60.1 °F 42.1 °F 51% 30.09 in 10.0 mi NNW 5.8 mph - N/A   Clear
5:53 PM 59.0 °F 43.0 °F 55% 30.09 in 10.0 mi Variable 5.8 mph - N/A   Clear
6:53 PM 55.9 °F 42.1 °F 60% 30.10 in 10.0 mi North 5.8 mph - N/A   Clear
7:53 PM 51.1 °F 43.0 °F 74% 30.11 in 10.0 mi WNW 4.6 mph - N/A   Clear
8:53 PM 50.0 °F 43.0 °F 77% 30.13 in 10.0 mi West 3.5 mph - N/A   Clear
9:53 PM 48.9 °F 43.0 °F 80% 30.13 in 10.0 mi Calm Calm - N/A   Clear
10:53 PM 46.0 °F 43.0 °F 89% 30.13 in 10.0 mi Calm Calm - N/A   Clear
11:53 PM 45.0 °F 42.1 °F 90% 30.13 in 10.0 mi Calm Calm - N/A   Clear